VE3TEJ Weather Reports


time (UTC)temp
C
wind
direction
speed
KPH
gust
KPH
rain 1hr
cm
rain 24hr
cm
rain mn
cm
humidity
%
barometer
mb
20260506002907 10 299 0.0 1.6 0.00 0.10 0.10 80 1006.2
20260506002407 10 291 1.6 1.6 0.00 0.10 0.10 80 1006.3
20260506001908 10 285 0.0 0.0 0.00 0.10 0.10 79 1006.5
20260506001408 10 285 0.0 1.6 0.00 0.10 0.10 78 1006.4
20260506000908 10 273 1.6 1.6 0.00 0.10 0.10 77 1006.4
20260506000408 10 285 1.6 1.6 0.00 0.10 0.10 77 1006.4
20260505235907 10 279 0.0 1.6 0.00 0.10 0.10 77 1006.3
20260505235408 10 277 1.6 1.6 0.00 0.10 0.10 78 1006.4
20260505234908 10 289 0.0 0.0 0.00 0.10 0.10 78 1006.1
20260505234408 10 285 0.0 0.0 0.00 0.10 0.10 77 1005.9
20260505233907 10 289 0.0 0.0 0.00 0.10 0.10 77 1006.0
20260505233407 10 290 0.0 0.0 0.00 0.10 0.10 76 1006.1
20260505232908 10 290 0.0 0.0 0.00 0.10 0.10 76 1006.1
20260505232408 10 289 0.0 0.0 0.00 0.10 0.10 76 1006.3
20260505231908 10 289 0.0 0.0 0.00 0.10 0.10 76 1006.2
20260505231407 10 287 0.0 0.0 0.00 0.10 0.10 76 1006.3
20260505230909 10 285 0.0 0.0 0.00 0.10 0.10 76 1006.1
20260505230408 10 287 0.0 0.0 0.00 0.10 0.10 76 1006.3
20260505225908 10 288 0.0 0.0 0.00 0.10 0.10 75 1006.4
20260505225407 10 289 0.0 0.0 0.00 0.10 0.10 75 1006.2
20260505224907 10 286 0.0 0.0 0.00 0.10 0.10 75 1006.3
20260505224409 10 285 0.0 1.6 0.00 0.10 0.10 75 1006.3
20260505223908 10 285 0.0 1.6 0.00 0.10 0.10 75 1006.4
20260505223408 10 283 1.6 1.6 0.00 0.10 0.10 76 1006.5
20260505222908 10 289 0.0 0.0 0.00 0.10 0.10 75 1006.6
20260505222407 10 288 0.0 1.6 0.00 0.10 0.10 75 1006.4
20260505221907 10 289 0.0 0.0 0.00 0.10 0.10 75 1006.3
20260505221408 10 288 0.0 0.0 0.00 0.10 0.10 75 1006.4
20260505220908 10 294 1.6 1.6 0.00 0.10 0.10 76 1006.2
20260505220407 10 290 0.0 0.0 0.00 0.10 0.10 77 1006.5
20260505215907 10 290 0.0 0.0 0.00 0.10 0.10 77 1006.4
20260505215409 10 285 0.0 0.0 0.00 0.10 0.10 77 1006.3
20260505214908 10 283 0.0 1.6 0.00 0.10 0.10 77 1006.4
20260505214408 10 286 0.0 0.0 0.00 0.10 0.10 77 1006.3
20260505213908 10 285 0.0 1.6 0.00 0.10 0.10 77 1006.5
20260505213407 10 290 0.0 1.6 0.00 0.10 0.10 77 1006.6
20260505212907 10 287 0.0 3.2 0.00 0.10 0.10 77 1006.6
20260505212408 10 284 1.6 1.6 0.00 0.10 0.10 77 1006.6
20260505211908 9 285 1.6 3.2 0.00 0.10 0.10 77 1006.6
20260505211408 9 285 0.0 0.0 0.00 0.10 0.10 78 1006.8
20260505210907 9 285 0.0 1.6 0.00 0.10 0.10 78 1006.7
20260505210407 9 284 1.6 1.6 0.00 0.10 0.10 78 1006.5
20260505205908 9 286 1.6 3.2 0.00 0.10 0.10 79 1006.5
20260505205408 9 292 0.0 1.6 0.00 0.10 0.10 78 1006.4
20260505204908 9 282 1.6 1.6 0.00 0.10 0.10 78 1006.3
20260505204407 9 284 0.0 1.6 0.00 0.10 0.10 78 1006.5
20260505203907 9 286 0.0 1.6 0.00 0.10 0.10 78 1006.6
20260505203409 9 285 1.6 1.6 0.00 0.10 0.10 77 1006.5
20260505202908 9 285 1.6 3.2 0.00 0.10 0.10 77 1006.6
20260505202408 10 284 1.6 1.6 0.00 0.10 0.10 78 1006.6
20260505201907 9 282 1.6 3.2 0.00 0.10 0.10 77 1006.7
20260505201407 10 285 1.6 3.2 0.00 0.10 0.10 78 1006.8
20260505200908 9 285 0.0 1.6 0.00 0.10 0.10 77 1006.6
20260505200408 10 286 1.6 1.6 0.03 0.10 0.10 77 1006.9
20260505195908 10 281 1.6 1.6 0.03 0.10 0.10 77 1006.7
20260505195407 9 283 1.6 1.6 0.05 0.10 0.10 78 1006.7
20260505194907 10 281 0.0 3.2 0.08 0.10 0.10 79 1006.5
20260505194408 10 283 0.0 0.0 0.08 0.10 0.10 80 1006.3
20260505193908 10 286 0.0 1.6 0.08 0.10 0.10 80 1006.3
20260505193408 10 285 0.0 0.0 0.08 0.10 0.10 81 1006.5
20260505192907 9 285 0.0 1.6 0.10 0.10 0.10 81 1006.4
20260505192407 9 286 1.6 1.6 0.10 0.10 0.10 81 1006.6
20260505191908 9 285 1.6 1.6 0.10 0.10 0.10 80 1006.6
20260505191408 9 286 0.0 1.6 0.10 0.10 0.10 81 1006.2
20260505190908 9 286 0.0 0.0 0.10 0.10 0.10 81 1006.0
20260505190407 9 290 1.6 3.2 0.08 0.08 0.08 80 1006.0
20260505185909 9 308 3.2 3.2 0.08 0.08 0.08 78 1006.2
20260505185408 10 285 1.6 1.6 0.05 0.05 0.05 75 1006.3
20260505184908 10 286 0.0 0.0 0.03 0.03 0.03 73 1006.2
20260505184407 10 281 1.6 3.2 0.03 0.03 0.03 72 1005.9
20260505183908 10 289 0.0 1.6 0.03 0.03 0.03 71 1005.7
20260505183407 10 285 1.6 1.6 0.03 0.03 0.03 71 1006.2
20260505182907 10 286 1.6 3.2 0.00 0.00 0.00 70 1006.3
20260505182409 11 282 1.6 1.6 0.00 0.00 0.00 68 1006.1
20260505181908 11 286 1.6 1.6 0.00 0.00 0.00 64 1006.3
20260505181408 11 309 1.6 1.6 0.00 0.00 0.00 66 1005.9
20260505180907 11 282 1.6 3.2 0.00 0.00 0.00 63 1005.9
20260505180407 11 281 1.6 3.2 0.00 0.00 0.00 65 1005.8
20260505175909 12 289 1.6 3.2 0.00 0.00 0.00 63 1005.5
20260505175408 12 302 3.2 3.2 0.00 0.00 0.00 63 1005.6
20260505174908 12 285 1.6 3.2 0.00 0.00 0.00 60 1005.4
20260505174407 12 287 1.6 3.2 0.00 0.00 0.00 59 1005.7
20260505173907 12 278 3.2 4.8 0.00 0.00 0.00 58 1005.8
20260505173409 12 281 1.6 3.2 0.00 0.00 0.00 59 1005.8
20260505172908 13 277 4.8 9.7 0.00 0.00 0.00 58 1005.5
20260505172408 13 275 3.2 4.8 0.00 0.00 0.00 60 1005.3
20260505171907 13 274 3.2 4.8 0.00 0.00 0.00 60 1005.3
20260505171407 13 289 3.2 3.2 0.00 0.00 0.00 60 1005.0
20260505170909 13 273 1.6 8.0 0.00 0.00 0.00 60 1004.9
20260505170408 14 291 3.2 8.0 0.00 0.00 0.00 62 1004.9
20260505165908 14 282 3.2 3.2 0.00 0.00 0.00 60 1004.7
20260505165407 14 280 1.6 3.2 0.00 0.00 0.00 60 1004.7
20260505164907 14 293 1.6 3.2 0.00 0.00 0.00 62 1004.6
20260505164408 15 279 3.2 3.2 0.00 0.00 0.00 60 1004.6
20260505163908 15 280 1.6 1.6 0.00 0.00 0.00 61 1004.5
20260505163407 15 292 0.0 1.6 0.00 0.00 0.00 62 1004.4
20260505162908 14 275 1.6 3.2 0.00 0.00 0.00 60 1004.6
20260505162408 13 283 1.6 1.6 0.00 0.00 0.00 60 1004.8
20260505161907 13 275 3.2 4.8 0.00 0.00 0.00 61 1004.6
20260505161407 14 281 3.2 3.2 0.00 0.00 0.00 61 1004.7
20260505160907 13 281 1.6 3.2 0.00 0.00 0.00 61 1004.7
20260505160407 13 288 1.6 3.2 0.00 0.00 0.00 61 1004.9
20260505152908 12 285 1.6 3.2 0.00 0.00 0.00 63 1005.1
20260505152407 13 309 3.2 8.0 0.00 0.00 0.00 63 1004.8
20260505151907 13 285 3.2 4.8 0.00 0.00 0.00 63 1004.6
20260505151408 13 265 3.2 4.8 0.00 0.00 0.00 63 1004.5
20260505150908 14 293 3.2 9.7 0.00 0.00 0.00 63 1004.2
20260505150408 14 281 4.8 8.0 0.00 0.00 0.00 63 1003.7
20260505140407 13 299 1.6 3.2 0.00 0.00 0.00 66 1002.9
20260505124907 11 285 0.0 1.6 0.00 0.00 0.00 78 1002.3
20260505124407 10 287 1.6 1.6 0.00 0.00 0.00 79 1002.5
20260505123909 10 300 1.6 4.8 0.00 0.00 0.00 79 1002.2
20260505123408 11 283 1.6 3.2 0.00 0.00 0.00 78 1002.2
20260505122908 11 275 3.2 4.8 0.00 0.00 0.00 78 1002.1
20260505122407 11 276 3.2 8.0 0.00 0.00 0.00 78 1002.0
20260505121909 12 305 3.2 4.8 0.00 0.00 0.00 77 1001.4
20260505121407 14 285 3.2 4.8 0.00 0.00 0.00 77 1001.2
20260505120907 14 279 1.6 3.2 0.00 0.00 0.00 78 1001.0
20260505120408 14 270 4.8 4.8 0.00 0.00 0.00 78 1001.2
20260505115908 14 271 3.2 4.8 0.00 0.00 0.00 78 1001.1
20260505115408 14 280 1.6 3.2 0.00 0.00 0.00 78 1000.7
20260505114907 14 278 3.2 4.8 0.00 0.00 0.00 78 1000.7
20260505114407 14 261 4.8 4.8 0.00 0.00 0.00 77 1000.4
20260505113908 14 282 4.8 8.0 0.00 0.00 0.00 77 1000.5
20260505113408 14 255 3.2 3.2 0.00 0.00 0.00 77 1000.5
20260505112908 14 270 3.2 4.8 0.00 0.00 0.00 77 1000.3
20260505112407 14 269 3.2 4.8 0.00 0.00 0.00 77 1000.3
20260505111909 14 270 3.2 8.0 0.00 0.00 0.00 77 1000.2
20260505111408 14 287 1.6 1.6 0.00 0.00 0.00 77 1000.2
20260505110908 14 279 1.6 8.0 0.00 0.00 0.00 77 1000.0
20260505110407 14 284 4.8 8.0 0.00 0.00 0.00 77 1000.0
20260505101908 14 282 3.2 4.8 0.00 0.00 0.00 77 1000.0
20260505101407 14 277 1.6 1.6 0.00 0.00 0.00 77 1000.1
20260505100907 14 273 3.2 4.8 0.00 0.00 0.00 76 999.9
20260505100409 14 265 4.8 4.8 0.00 0.00 0.00 76 999.9
20260505095908 14 267 3.2 3.2 0.00 0.00 0.00 77 999.8
20260505095408 14 277 3.2 3.2 0.00 0.00 0.00 77 999.8
20260505094907 14 283 1.6 3.2 0.00 0.00 0.00 76 999.7
20260505094408 14 268 3.2 3.2 0.00 0.00 0.00 76 999.6
20260505093907 14 273 3.2 4.8 0.00 0.00 0.00 76 999.5
20260505093407 14 282 3.2 3.2 0.00 0.00 0.00 76 999.5
20260505092907 14 272 1.6 3.2 0.00 0.00 0.00 76 999.3
20260505092408 14 281 1.6 1.6 0.00 0.00 0.00 76 999.5
20260505091908 14 282 1.6 3.2 0.00 0.00 0.00 76 999.4
20260505091408 14 285 1.6 3.2 0.00 0.00 0.00 76 999.3
20260505090907 15 280 1.6 3.2 0.00 0.00 0.00 76 999.3
20260505090407 15 285 3.2 3.2 0.00 0.00 0.00 76 999.1
20260505085908 15 283 1.6 3.2 0.00 0.00 0.00 76 999.1
20260505085408 14 271 1.6 1.6 0.00 0.00 0.00 76 999.0
20260505084908 14 281 0.0 1.6 0.00 0.00 0.00 77 999.0
20260505084408 14 284 0.0 1.6 0.00 0.00 0.00 77 998.9
20260505083908 14 274 1.6 1.6 0.00 0.00 0.00 78 998.8
20260505083407 14 283 1.6 1.6 0.00 0.00 0.00 78 998.9
20260505082907 14 280 1.6 1.6 0.00 0.00 0.00 78 998.7
20260505082409 14 283 1.6 3.2 0.00 0.00 0.00 78 998.6
20260505081908 14 279 3.2 3.2 0.00 0.00 0.00 78 998.7
20260505081408 14 276 1.6 1.6 0.00 0.00 0.00 77 998.8
20260505080908 14 283 1.6 1.6 0.00 0.00 0.00 77 998.5
20260505080407 14 273 1.6 1.6 0.00 0.00 0.00 77 998.6
20260505075907 14 278 1.6 1.6 0.00 0.00 0.00 77 998.8
20260505075408 14 276 1.6 1.6 0.00 0.00 0.00 76 998.5
20260505074908 14 282 0.0 1.6 0.00 0.00 0.00 76 998.5
20260505074407 15 285 0.0 3.2 0.00 0.00 0.00 76 998.6
20260505073907 15 284 1.6 3.2 0.00 0.00 0.00 76 998.5
20260505073409 15 277 1.6 3.2 0.00 0.00 0.00 75 998.4
20260505072908 15 279 0.0 3.2 0.00 0.00 0.00 75 998.5
20260505072408 15 251 1.6 4.8 0.00 0.00 0.00 74 998.6
20260505071907 15 256 1.6 3.2 0.00 0.00 0.00 74 998.7
20260505071407 15 282 1.6 8.0 0.00 0.00 0.00 73 998.6
20260505070908 15 285 1.6 3.2 0.00 0.00 0.00 73 998.7
20260505070408 15 288 1.6 3.2 0.00 0.00 0.00 72 998.8
20260505065908 15 256 3.2 3.2 0.00 0.00 0.00 72 998.9
20260505065407 15 258 1.6 8.0 0.00 0.00 0.00 72 998.6
20260505064909 15 274 1.6 4.8 0.00 0.00 0.00 72 998.6
20260505064408 15 279 3.2 3.2 0.00 0.00 0.00 73 998.7
20260505063908 15 285 3.2 3.2 0.00 0.00 0.00 74 998.8
20260505063407 15 263 1.6 3.2 0.00 0.00 0.00 74 999.1
20260505062907 15 282 1.6 3.2 0.00 0.00 0.00 74 999.2
20260505062409 14 275 1.6 3.2 0.00 0.00 0.00 74 999.1
20260505061908 14 239 1.6 3.2 0.00 0.00 0.00 74 999.4
20260505061408 14 273 3.2 4.8 0.00 0.00 0.00 74 999.2
20260505060908 14 255 3.2 3.2 0.00 0.00 0.00 74 999.4
20260505060408 14 274 1.6 3.2 0.00 0.00 0.00 74 999.5
20260505055908 14 271 3.2 4.8 0.00 0.00 0.00 75 999.5
20260505055407 14 255 1.6 3.2 0.00 0.00 0.00 75 999.7
20260505054909 14 287 3.2 4.8 0.00 0.00 0.00 75 999.6
20260505054408 14 269 1.6 4.8 0.00 0.00 0.00 75 999.7
20260505053908 14 239 3.2 4.8 0.00 0.00 0.00 75 999.5
20260505053407 14 260 1.6 3.2 0.00 0.00 0.00 75 999.8
20260505052907 14 280 3.2 4.8 0.00 0.00 0.00 75 999.6
20260505052408 14 236 4.8 8.0 0.00 0.00 0.00 75 999.8
20260505051908 14 245 3.2 3.2 0.00 0.00 0.00 74 999.9
20260505051407 14 270 1.6 4.8 0.00 0.00 0.00 74 1000.1
20260505050907 15 256 3.2 3.2 0.00 0.00 0.00 74 999.9
20260505050409 15 258 3.2 4.8 0.00 0.00 0.00 74 999.9
20260505041407 15 273 3.2 8.0 0.00 0.00 0.00 74 999.8
20260505040907 15 252 4.8 4.8 0.00 0.00 0.00 74 1000.0
20260505040409 15 279 1.6 3.2 0.00 0.00 0.00 73 999.9
20260505035908 15 268 3.2 4.8 0.00 0.00 0.00 73 1000.0
20260505035408 15 247 3.2 3.2 0.00 0.00 0.00 73 999.9
20260505034907 15 255 3.2 4.8 0.00 0.00 0.00 75 1000.1
20260505034408 15 274 1.6 1.6 0.00 0.00 0.00 76 1000.0
20260505033907 15 271 3.2 3.2 0.00 0.00 0.00 77 1000.1
20260505033407 15 279 1.6 3.2 0.00 0.00 0.00 77 1000.3
20260505032909 15 257 3.2 4.8 0.00 0.00 0.00 77 1000.2
20260505032408 15 260 1.6 3.2 0.00 0.00 0.00 75 1000.2
20260505031908 16 271 1.6 8.0 0.00 0.00 0.00 70 1000.5
20260505031407 16 273 3.2 3.2 0.00 0.00 0.00 68 1000.8
20260505030907 16 276 3.2 8.0 0.00 0.00 0.00 69 1000.7
20260505030408 16 285 3.2 3.2 0.00 0.00 0.00 68 1000.7
20260505025908 16 235 4.8 11.3 0.00 0.00 0.00 66 1001.0
20260505025408 16 235 3.2 4.8 0.00 0.00 0.00 64 1000.9
20260505024907 16 226 4.8 8.0 0.00 0.00 0.00 65 1000.7
20260505024409 16 312 3.2 3.2 0.00 0.00 0.00 69 1000.6
20260505024210 16 284 1.6 8.0 0.00 0.00 0.00 71 1000.8
20260505023908 16 290 3.2 3.2 0.00 0.00 0.00 71 1000.8
20260505023408 16 280 1.6 1.6 0.00 0.00 0.00 71 1000.8
20260505022907 16 276 3.2 3.2 0.00 0.00 0.00 69 1001.0
20260505022407 16 275 3.2 3.2 0.00 0.00 0.00 69 1001.0
20260505021909 16 284 4.8 8.0 0.00 0.00 0.00 69 1000.8
20260505021408 16 290 3.2 4.8 0.00 0.00 0.00 69 1000.9
20260505020908 16 268 4.8 8.0 0.00 0.00 0.00 68 1000.7
20260505020407 16 260 3.2 3.2 0.00 0.00 0.00 68 1000.8
20260505015907 16 314 1.6 4.8 0.00 0.00 0.00 69 1000.7
20260505015408 16 279 1.6 3.2 0.00 0.00 0.00 68 1000.6
20260505014908 16 276 3.2 4.8 0.00 0.00 0.00 67 1000.5
20260505014408 16 280 1.6 3.2 0.00 0.00 0.00 68 1000.6
20260505013907 16 272 3.2 8.0 0.00 0.00 0.00 68 1000.3
20260505013409 15 267 3.2 4.8 0.00 0.00 0.00 68 999.8
20260505012908 15 276 3.2 4.8 0.00 0.00 0.00 69 999.6
20260505012408 15 278 3.2 4.8 0.00 0.00 0.00 69 999.7
20260505011907 15 275 3.2 4.8 0.00 0.00 0.00 69 999.7
20260505011407 15 279 1.6 3.2 0.00 0.00 0.00 69 999.7
20260505010909 15 282 3.2 4.8 0.00 0.00 0.00 69 999.7
20260505010408 15 272 1.6 3.2 0.00 0.00 0.00 68 999.9
20260505005908 15 256 8.0 11.3 0.00 0.00 0.00 67 999.8
20260505005407 16 267 3.2 4.8 0.00 0.00 0.00 66 999.7
20260505004907 16 254 4.8 8.0 0.00 0.00 0.00 65 999.6
20260505004409 16 274 3.2 3.2 0.00 0.00 0.00 64 999.6
20260505003908 16 264 3.2 3.2 0.00 0.00 0.00 63 999.6
20260505003408 17 260 3.2 4.8 0.00 0.00 0.00 62 999.7